Tri Cities Regional Tn Va Airport
KTRI : now visible

Airfield :











YOU CAN JOIN US ON...

 
LOGIN :

Register | Disclaimer

   EN    FR    IT 

 









Legend :    VFR   Marginal VFR   IFR   Intensive IFR   Very Intensive IFR
Visi :
Ceiling :
>= 8 km
>= 3000ft
5 to 8 km
1000 to 3000 ft
1500m to 5 km
500 to 1000 ft
800 to 1500m
200 to 500 ft
< 800m
< 200 ft
Symbols :   Thunderstorms  Fog  Heavy snow  Heavy precipitations  Wind > 20 kt






- Airport Elevation : 1519 ft
- IATA code : TRI


KTRI - Tri Cities Regional Tn Va

CURRENT METAR :
  • 221253Z 21003KT 10SM FEW090 03/M02 A3018 RMK AO2 SLP218 T00281017

EXPIRED METARs :
  • 221153Z 00000KT 10SM FEW250 M01/M03 A3018 RMK AO2 SLP218 70003 I6000 T10111033 11011 21039 53012
  • 221053Z 00000KT 10SM FEW250 M03/M05 A3016 RMK AO2 SLP214 I1000 T10331050

TAF KTRI
Valid from the 22 at 12:00 until the 23 at 12:00 UTC


221120Z 2212/2312 00000KT P6SM FEW250
FM221400 27007KT P6SM FEW060
FM221700 27010G19KT P6SM BKN060
FM222300 24008KT P6SM SCT070
FM231100 00000KT P6SM BKN120
KZTL FIR / North America



MET'MAP, your aeronautical weather chart ! - Copyright ORBIFLY December 2007 - Disclaimer

ORBIFLY MET'MAP TEAM :

Programming & Development : Alexandra Zaïnal
Concept & original design : Baudouin d'Aumeries
Assistance for programming : Marc-Olivier Méhu
Technical & hardware support : Manuel Goepfert

Contact : metmap@orbifly.com




SOURCES & CREDITS :

   NOAA       Earth
Advisory